ONEWEB-0560 (55145 NORAD) Tracking and Keplerian Element Data

This shows tracking and keplerian element data for the satellite.

Feedback or suggestion? Click here.




ElementValue
Catalog55145
NameONEWEB-0560
Epoch Orbit130
Epoch Day85.00001157
Epoch Year2023
RAAN253.6372
Inclination86.6257
Eccentricity0.000277
Argument of Perigee354.8048
Mean Anonmoly22.1144
Mean Motion14.65732224
Decay Rate-0.00017451
L11 55145U 23004F 23085.00001157 -.00017451 00000+0 -32214-2 0 9994
L22 55145 86.6257 253.6372 0002770 354.8048 22.1144 14.65732224 1306



Live tracking and technical data element details for ONEWEB-0560 (NORAD 55145). ONEWEB-0560 can be tracked NOW for your location showing map with azimuth and elevation plus other details from your city location.







IsCatalogInMostPopularTable: catalog: 55145, numindb: 11
Update: records affected: 1



GetName: 55145 ONEWEB-0560

Hit Count: updated at: Mon, 27 Mar 2023 06:58:26 GMT